Regional Weather Roundup
Issued by NWS

Home | Current Version | Previous Version | Text Only | Print | Product List | Glossary Off
Versions: 1 2 3 4 5 6 7 8 9 10 11 12 13 14 15 16 17 18 19 20 21 22 23 24 25 26 27 28 29 30 31 32 33 34 35 36 37 38 39 40 41 42 43 44 45 46 47 48 49 50

299
ASUS43 KFSD 051102
RWRSD

WEATHER ROUNDUP FOR SOUTH DAKOTA
NATIONAL WEATHER SERVICE SIOUX FALLS SD
600 AM CDT THU MAY 05 2016

NOTE: "FAIR" INDICATES FEW OR NO CLOUDS BELOW 12,000 FEET WITH NO
SIGNIFICANT WEATHER AND/OR OBSTRUCTIONS TO VISIBILITY.


SDZ001>005-009-010-012>017-051200-
NORTHWEST AND NORTH CENTRAL SOUTH DAKOTA

CITY           SKY/WX    TMP DP  RH WIND       PRES   REMARKS
BUFFALO          N/A     53  42  66 S6        29.89S
FAITH            N/A     51  40  65 SE17      29.94F
MOBRIDGE       CLEAR     50  44  80 SE9       29.94S
$$

SDZ012>016-024>037-041>051-057-063-072>074-051200-
SOUTHWEST AND SOUTH CENTRAL SOUTH DAKOTA

CITY           SKY/WX    TMP DP  RH WIND       PRES   REMARKS
RAPID CTY ARPT CLEAR     46  40  79 SE6       29.96F
PIERRE         CLEAR     44  38  79 CALM      29.98S
CUSTER         CLOUDY    45  34  65 NW3       30.08S
ELLSWORTH AFB  CLEAR     51  42  70 S6        29.95F
PHILIP         CLEAR     56  39  53 SE7G17    29.98S
PINE RIDGE     CLEAR     55  40  56 SW12      30.01S
WINNER         FAIR      52  38  58 SW7       30.03S
$$

SDZ004>011-016>023-039-040-051200-
NORTHEAST SOUTH DAKOTA

CITY           SKY/WX    TMP DP  RH WIND       PRES   REMARKS
ABERDEEN       CLEAR     42  36  79 S7        29.97S
WATERTOWN      CLEAR     42  34  73 SE6       30.00R
BROOKINGS      CLEAR     42  35  76 SE5       30.01S
SISSETON         N/A     58  32  37 SW8       29.94S
$$

SDZ017-020-022-023-036>040-048>070-051200-
SOUTHEAST SOUTH DAKOTA

CITY           SKY/WX    TMP DP  RH WIND       PRES   REMARKS
SIOUX FALLS    PTCLDY    39  36  89 CALM      30.04R
HURON          CLEAR     44  39  82 S5        30.00R
MITCHELL       CLEAR     46  41  82 S6        30.02S
YANKTON        CLEAR     43  37  81 CALM      30.04R
$$

ABBREVIATIONS USED IN REMARKS
   TC - TEMPERATURE IN CELSIUS
  WCI - WIND CHILL INDEX
   HX - HEAT INDEX
  VSB - VISIBILITY





USA.gov is the U.S. government's official web portal to all federal, state and local government web resources and services.